Tracking 17636 objects as of 30-April-2016
HD Live streaming from Space Station
objects crossing your sky now

COSMOS 1018

Track COSMOS 1018 now!
10-day predictions
COSMOS 1018 is classified as:


NORAD ID: 10935
Int'l Code: 1978-056F
Perigee: 1,448.9 km
Apogee: 1,495.5 km
Inclination: 74.0 °
Period: 115.2 minutes
Semi major axis: 7843 km
RCS: 0.7262 m2 (medium)
Launch date: June 7, 1978
Source: Commonwealth of Independent States (former USSR) (CIS)
Launch site: PLESETSK MISSILE AND SPACE COMPLEX (PKMTR)
Your satellite tracking list
Your tracking list is empty





NASA's NSSDC Master Catalog

Two Line Element Set (TLE):
1 10935U 78056F   16120.70196303 -.00000014 +00000-0 +11815-4 0  9999
2 10935 074.0276 206.5729 0029709 224.2788 248.5059 12.49857544728972
Source of the keplerian elements: AFSPC

N2YO: 305